Hourly Data Report for April 01, 2003

TORONTO CITY
ONTARIO

43°40'00.000" N
79°24'00.000" W
112.50 m
6158355
71508
XTO

Download Data

Hourly Data (April 2003)
Hourly Data Report for April 1, 2003
TIME
LST
Temp Definition
°C
Dew Point Definition
°C
Rel Hum Definition
%
Precip. Amount Definition
mm

Wind Dir Definition
10's deg

Wind Spd Definition
km/h
Visibility Definition
km
Stn Press Definition
kPa
Hmdx Definition


Wind Chill Definition


Weather Definition


00:00 -4.2 -11.3 58   LegendMM LegendMM LegendMM 100.40     LegendNANA
01:00 -3.9 -11.5 55   LegendMM LegendMM LegendMM 100.36     LegendNANA
02:00 -2.9 -9.9 58   LegendMM LegendMM LegendMM 100.28     LegendNANA
03:00 -1.9 -10.1 53   LegendMM LegendMM LegendMM 100.19     LegendNANA
04:00 -1.6 -9.5 55   LegendMM LegendMM LegendMM 100.10     LegendNANA
05:00 -1.7 -6.5 70   LegendMM LegendMM LegendMM 99.95     LegendNANA
06:00 -1.3 -7.9 61   LegendMM LegendMM LegendMM 99.83     LegendNANA
07:00 -2.4 -3.3 94   LegendMM LegendMM LegendMM 99.70     LegendNANA
08:00 -1.8 -2.9 92   LegendMM LegendMM LegendMM 99.61     LegendNANA
09:00 -1.7 -2.5 94   LegendMM LegendMM LegendMM 99.48     LegendNANA
10:00 -0.7 -1.5 94   LegendMM LegendMM LegendMM 99.37     LegendNANA
11:00 0.1 -1.0 92   LegendMM LegendMM LegendMM 99.32     LegendNANA
12:00 0.8 -1.0 88   LegendMM LegendMM LegendMM 99.26     LegendNANA
13:00 1.5 -0.5 87   LegendMM LegendMM LegendMM 99.23     LegendNANA
14:00 1.8 -0.5 85   LegendMM LegendMM LegendMM 99.27     LegendNANA
15:00 3.1 0.5 83   LegendMM LegendMM LegendMM 99.28     LegendNANA
16:00 2.6 -0.2 82   LegendMM LegendMM LegendMM 99.33     LegendNANA
17:00 2.5 0.1 84   LegendMM LegendMM LegendMM 99.41     LegendNANA
18:00 2.4 -0.3 82   LegendMM LegendMM LegendMM 99.46     LegendNANA
19:00 1.7 -0.3 87   LegendMM LegendMM LegendMM 99.57     LegendNANA
20:00 1.4 -0.1 90   LegendMM LegendMM LegendMM 99.70     LegendNANA
21:00 1.6 0.5 92   LegendMM LegendMM LegendMM 99.83     LegendNANA
22:00 1.6 0.5 92   LegendMM LegendMM LegendMM 99.87     LegendNANA
23:00 1.5 0.4 92   LegendMM LegendMM LegendMM 99.92     LegendNANA

Notes on Data Quality.

Legend

  • E = Estimated
  • M = Missing
  • NA = Not Available*
  • [empty] = Indicates an unobserved value
Date modified: